Location: Olsztyn
(53.7767°N, 20.4765°E)
Time: 14:59:33
(UTC+02:00)

SR - Visible Passes

Search period start: 19 July 2024 00:00
Search period end: 29 July 2024 00:00
Orbit: 581 x 856 km, 66.7° (Epoch: 18 July)

Date Brightness Start Highest point End Pass type
(mag) Time Alt. Az. Time Alt. Az. Time Alt. Az.
20 Jul ? 03:22:45 10° SSE 03:26:14 22° ESE 03:29:35 10° ENE visible
21 Jul ? 02:32:54 10° ESE 02:34:08 11° ESE 02:35:22 10° E visible
22 Jul ? 03:18:44 10° S 03:22:49 34° ESE 03:26:43 10° NE visible
23 Jul ? 02:27:35 10° SSE 02:30:36 18° ESE 02:33:32 10° ENE visible
24 Jul ? 03:15:22 12° SSW 03:19:26 53° SE 03:23:38 10° NE visible
25 Jul ? 02:24:16 15° SSE 02:27:06 27° ESE 02:30:46 10° ENE visible
26 Jul ? 01:33:07 12° SE 01:34:55 14° ESE 01:37:16 10° ENE visible
26 Jul ? 03:12:19 14° SW 03:16:06 82° SE 03:20:24 10° NE visible
27 Jul ? 02:21:08 21° S 02:23:39 43° ESE 02:27:43 10° NE visible
28 Jul ? 01:29:54 19° SE 01:31:21 22° ESE 01:34:43 10° ENE visible
28 Jul ? 03:09:06 14° SW 03:12:48 66° NW 03:17:04 10° NE visible
